Starlink 3374

operational
NORAD ID: 51112 Int'l Des: 2022-005 Owner: SPXS Country: US Constellation: starlink
LEOCIRCULAR

Starlink 3374について

説明を読み込み中...

リアルタイム位置

3D地球を読み込み中...

次回通過

高度履歴

Altitude vs Time

uPlot chart will show altitude changes over time

軌道要素

1 51112U 22005J 25352.55223604 -.00000038 00000-0 15683-4 0 9992
2 51112 53.2179 293.3345 0001387 90.4536 269.6615 15.08836529216634
Epoch: Dec 18, 2025 • Age: 12 hours

現在のステータス

高度 539.7 km
速度 7.59 km/s
衛星直下点 9.28°N, 0.63°W
打ち上げ日 Jan 19, 2022
運用期間 3.9 years
タイプ internet

技術仕様

分類 Payload
質量 297.00 kg
乾燥質量 275.00 kg
総質量 297.00 kg
長さ 0.20 m
直径 2.80 m
スパン 9.00 m
形状 Box + pan
製造者 SPXS
バスタイプ Starlink
フェーズステータス In Orbit
所有者/国 SPXS/US

大規模コンステレーション

Loading constellations...